Tracking 19920 objects as of 13-Oct-2019
HD Live streaming from Space Station
objects crossing your sky now

IRIDIUM 33 DEB


IRIDIUM 33 DEB is no longer on orbit


NORAD ID: 35055
Int'l Code: 1997-051PB
Perigee: N/A
Apogee: N/A
Inclination: N/A
Period: N/A
Semi major axis: N/A
RCS: N/A
Launch date: September 14, 1997
Source: United States (US)
Launch site: TYURATAM MISSILE AND SPACE COMPLEX (TTMTR)
Decay date: 2013-04-30

Note: This is SATELLITE DEBRIS
aabbcc
Your satellite tracking list
Your tracking list is empty




NASA's NSSDC Master Catalog

Two Line Element Set (TLE):
1 35055U 97051PB  13117.60505882  .03956679  00000-0  32876-1 0  9999
2 35055 086.2611 156.7767 0026911 241.6420 249.4499 15.66099422210694
Source of the keplerian elements: AFSPC